• Join FlightAware (Why Join?)
  • Login
  • US Flag 
02:12AM EDT


 

Airport Tracker/Info


-or-


 

Live Flight TrackerFlight Track Log ✈ SWA3321 ✈ 19-Apr-2013 ✈ KMCO - KMHT

Flight Track Log - Related Links

Times and Time Zones

All times are in EDT time to prevent confusion due to time zone crossing. See the SWA3321 flight status page for this flight to view local times or setup timezone preferences in your user account.

Time Position Orientation Groundspeed Altitude Reporting Facility
EDT Latitude Longitude Course Direction KTS MPH feet Rate Location/Type
11:31AM 28.4000 -81.3000 156° South 161 185 800  Level Orlando TRACON
11:32AM 28.3667 -81.2833 156° South 184 212 2,500 1,980 Climbing Orlando TRACON
11:33AM 28.3833 -81.2167 74° East 282 325 4,600 2,400 Climbing Orlando TRACON
11:35AM 28.5086 -81.2342 353° North 318 366 9,300 2,340 Climbing Jacksonville Center
11:36AM 28.5944 -81.2589 346° North 313 360 11,000 1,860 Climbing Jacksonville Center
11:37AM 28.6969 -81.2831 348° North 339 390 13,100 2,340 Climbing Jacksonville Center
11:38AM 28.7997 -81.3122 346° North 365 420 15,700 2,520 Climbing Jacksonville Center
11:39AM 28.9086 -81.3414 347° North 382 440 18,200 2,400 Climbing Jacksonville Center
11:40AM 29.0194 -81.3706 347° North 392 451 20,600 2,160 Climbing Jacksonville Center
11:41AM 29.1325 -81.3950 349° North 403 464 22,600 1,800 Climbing Jacksonville Center
11:42AM 29.2536 -81.4025 357° North 415 478 24,200 1,680 Climbing Jacksonville Center
11:43AM 29.3728 -81.4150 355° North 425 489 26,000 1,800 Climbing Jacksonville Center
11:44AM 29.5086 -81.4297 355° North 436 502 27,900 1,500 Climbing Jacksonville Center
11:45AM 29.6342 -81.4447 354° North 441 507 29,100 1,380 Climbing Jacksonville Center
11:46AM 29.7594 -81.4547 356° North 446 513 30,700 1,620 Climbing Jacksonville Center
11:47AM 29.8828 -81.4650 356° North 445 512 32,400 1,560 Climbing Jacksonville Center
11:48AM 30.0081 -81.4775 355° North 445 512 33,900 1,260 Climbing Jacksonville Center
11:49AM 30.1294 -81.4900 355° North 440 506 35,000 540 Climbing Jacksonville Center
11:50AM 30.2506 -81.5028 355° North 440 506 35,000  Level Jacksonville Center
11:51AM 30.3697 -81.5058 359° North 440 506 35,000  Level Jacksonville Center
11:52AM 30.4928 -81.4967 North 440 506 35,000  Level Jacksonville Center
11:53AM 30.6158 -81.4878 North 440 506 35,000  Level Jacksonville Center
11:54AM 30.7389 -81.4786 North 440 506 35,000  Level Jacksonville Center
11:55AM 30.8639 -81.4622 North 440 506 35,000  Level Jacksonville Center
11:56AM 30.9803 -81.4072 22° Northeast 445 512 35,000  Level Jacksonville Center
11:57AM 31.1006 -81.3494 22° Northeast 452 520 35,000  Level Jacksonville Center
11:58AM 31.2189 -81.2867 24° Northeast 457 526 35,000  Level Jacksonville Center
11:59AM 31.3372 -81.2289 23° Northeast 450 518 35,000  Level Jacksonville Center
12:00PM 31.4533 -81.1658 25° Northeast 458 527 35,000  Level Jacksonville Center
12:01PM 31.5736 -81.1053 23° Northeast 464 534 35,000  Level Jacksonville Center
12:02PM 31.6814 -81.0494 24° Northeast 464 534 35,000  Level Jacksonville Center
12:03PM 31.8097 -80.9808 24° Northeast 458 527 35,000  Level Jacksonville Center
12:04PM 31.9319 -80.9219 22° Northeast 458 527 35,000  Level Jacksonville Center
12:05PM 32.0397 -80.8658 24° Northeast 458 527 35,000  Level Jacksonville Center
12:06PM 32.1700 -80.7992 23° Northeast 463 533 35,000  Level Jacksonville Center
12:07PM 32.2881 -80.7350 25° Northeast 458 527 35,000  Level Jacksonville Center
12:08PM 32.4061 -80.6756 23° Northeast 459 528 35,000  Level Jacksonville Center
12:09PM 32.5258 -80.6111 24° Northeast 459 528 35,000  Level Jacksonville Center
12:10PM 32.6481 -80.5489 23° Northeast 459 528 35,000  Level Jacksonville Center
12:11PM 32.7658 -80.4864 24° Northeast 459 528 35,000  Level Jacksonville Center
12:12PM 32.8733 -80.4292 24° Northeast 459 528 35,000  Level Jacksonville Center
12:13PM 33.0094 -80.3586 23° Northeast 470 541 35,000 -360 Level Jacksonville Center
12:14PM 33.1294 -80.2956 24° Northeast 474 545 34,300 -900 Descending Jacksonville Center
12:16PM 33.3288 -80.1666 24° Northeast  Level FlightAware Approximate
12:17PM 33.4719 -80.1139 24° Northeast 456 525 31,500  Level Jacksonville Center
12:18PM 33.5917 -80.0503 24° Northeast 456 525 30,500 -960 Descending Jacksonville Center
12:19PM 33.7111 -79.9839 25° Northeast 461 531 29,600 -780 Descending Jacksonville Center
12:20PM 33.8325 -79.9175 24° Northeast 461 531 29,000 -300 Descending Jacksonville Center
12:21PM 33.9542 -79.8531 24° Northeast 466 536 29,000  Level Jacksonville Center
12:22PM 34.0756 -79.7839 25° Northeast 471 542 29,000  Level Jacksonville Center
12:23PM 34.1972 -79.7192 24° Northeast 476 548 29,000  Level Jacksonville Center
12:25PM 34.5047 -79.5536 24° Northeast 469 540 29,000  Level Washington Center
12:26PM 34.6239 -79.4811 27° Northeast 469 540 29,000  Level Washington Center
12:27PM 34.7514 -79.4139 23° Northeast 474 545 29,000  Level Washington Center
12:28PM 34.8722 -79.3489 24° Northeast 474 545 29,000  Level Washington Center
12:29PM 34.9956 -79.2783 25° Northeast 474 545 29,000  Level Washington Center
12:30PM 35.1206 -79.2106 24° Northeast 474 545 29,000  Level Washington Center
12:31PM 35.2439 -79.1422 24° Northeast 474 545 29,000  Level Washington Center
12:32PM 35.3583 -79.0786 24° Northeast 481 554 29,000  Level Washington Center
12:33PM 35.4897 -79.0053 24° Northeast 481 554 29,000  Level Washington Center
12:34PM 35.6128 -78.9364 24° Northeast 481 554 29,000  Level Washington Center
12:35PM 35.7400 -78.8650 24° Northeast 481 554 29,000  Level Washington Center
12:36PM 35.8608 -78.7906 27° Northeast 481 554 29,000  Level Washington Center
12:37PM 35.9761 -78.6978 33° Northeast 486 559 29,000  Level Washington Center
12:38PM 36.0892 -78.5994 35° Northeast 492 566 29,000  Level Washington Center
12:39PM 36.2000 -78.4981 36° Northeast 492 566 29,000  Level Washington Center
12:40PM 36.3131 -78.3992 35° Northeast 497 572 29,000  Level Washington Center
12:41PM 36.4258 -78.3000 35° Northeast 497 572 29,000  Level Washington Center
12:42PM 36.5153 -78.2203 36° Northeast 492 566 29,000  Level Washington Center
12:43PM 36.6367 -78.1106 36° Northeast 492 566 29,000  Level Washington Center
12:44PM 36.7472 -78.0103 36° Northeast 486 559 29,000  Level Washington Center
12:45PM 36.8578 -77.9075 37° Northeast 486 559 29,000  Level Washington Center
12:46PM 36.9503 -77.7569 52° Northeast 482 555 29,000  Level Washington Center
12:47PM 37.0319 -77.6186 53° Northeast 487 560 29,000  Level Washington Center
12:48PM 37.1114 -77.4853 53° Northeast 487 560 29,000  Level Washington Center
12:49PM 37.1925 -77.3464 54° Northeast 487 560 29,000  Level Washington Center
12:50PM 37.2739 -77.2100 53° Northeast 487 560 29,000  Level Washington Center
12:51PM 37.3567 -77.0969 47° Northeast 487 560 29,000  Level Washington Center
12:52PM 37.4850 -77.0000 31° Northeast 482 555 29,000  Level Washington Center
12:53PM 37.5922 -76.9206 30° Northeast 487 560 29,000  Level Washington Center
12:54PM 37.7081 -76.8333 31° Northeast 487 560 29,000  Level Washington Center
12:55PM 37.8278 -76.7458 30° Northeast 487 560 29,000  Level Washington Center
12:56PM 37.9475 -76.6556 31° Northeast 492 566 29,000  Level Washington Center
12:57PM 38.0669 -76.5675 30° Northeast 492 566 29,000  Level Washington Center
12:58PM 38.1867 -76.4767 31° Northeast 492 566 29,000  Level Washington Center
12:59PM 38.3019 -76.3881 31° Northeast 492 566 29,000  Level Washington Center
01:00PM 38.4153 -76.2781 37° Northeast 492 566 29,000  Level Washington Center
01:01PM 38.5219 -76.1833 35° Northeast 487 560 29,000  Level Washington Center
01:02PM 38.6497 -76.0675 35° Northeast 498 573 29,000  Level Washington Center
01:03PM 38.7606 -75.9617 37° Northeast 498 573 29,000  Level Washington Center
01:04PM 38.8714 -75.8556 37° Northeast 498 573 29,000  Level Washington Center
01:05PM 38.9842 -75.7544 35° Northeast 498 573 29,000  Level Washington Center
01:06PM 39.0947 -75.6506 36° Northeast 498 573 29,000  Level Washington Center
01:07PM 39.2031 -75.5433 37° Northeast 498 573 29,000  Level Washington Center
01:08PM 39.3175 -75.4414 35° Northeast 498 573 29,000  Level Washington Center
01:09PM 39.4300 -75.3389 35° Northeast 498 573 29,000  Level Washington Center
01:10PM 39.5422 -75.2364 35° Northeast 498 573 29,000  Level Washington Center
01:11PM 39.6544 -75.1333 35° Northeast 498 573 29,000  Level Washington Center
01:11PM 39.6814 -75.1111 32° Northeast 494 568 29,000  Level New York Center
01:12PM 39.7847 -75.0203 34° Northeast 507 583 29,000  Level New York Center
01:13PM 39.8967 -74.9214 34° Northeast 501 577 29,000  Level New York Center
01:14PM 40.0144 -74.8336 30° Northeast 501 577 29,000  Level New York Center
01:15PM 40.1447 -74.7381 29° Northeast 483 556 29,000  Level New York Center
01:16PM 40.2633 -74.6850 19° North 483 556 29,000  Level New York Center
01:17PM 40.3919 -74.6406 15° North 483 556 29,000  Level New York Center
01:19PM 40.6236 -74.5619 14° North 490 564 29,000  Level Boston Center
01:20PM 40.7536 -74.5169 15° North 490 564 29,000  Level Boston Center
01:21PM 40.8858 -74.4717 15° North 490 564 29,000  Level Boston Center
01:22PM 41.0178 -74.4236 15° North 490 564 29,000  Level Boston Center
01:23PM 41.1542 -74.3808 13° North 490 564 29,000  Level Boston Center
01:24PM 41.2819 -74.3322 16° North 490 564 29,000  Level Boston Center
01:25PM 41.4161 -74.2864 14° North 490 564 29,000  Level Boston Center
01:26PM 41.5483 -74.2403 15° North 496 571 29,000  Level Boston Center
01:27PM 41.6822 -74.1942 14° North 496 571 29,000  Level Boston Center
01:28PM 41.7997 -74.1528 15° North 489 563 29,000  Level Boston Center
01:29PM 41.9067 -74.1139 15° North 489 563 29,000  Level Boston Center
01:30PM 42.0314 -73.9772 39° Northeast 476 548 29,000  Level Boston Center
01:31PM 42.1044 -73.8139 59° Northeast 470 541 29,000 -720 Level Boston Center
01:32PM 42.1900 -73.6339 57° Northeast 504 580 27,700 -1,680 Descending Boston Center
01:33PM 42.2622 -73.4725 59° Northeast 504 580 25,700 -2,100 Descending Boston Center
01:34PM 42.3239 -73.3386 58° Northeast 496 571 23,600 -1,740 Descending Boston Center
01:35PM 42.4044 -73.1656 58° Northeast 486 559 22,300 -1,140 Descending Boston Center
01:36PM 42.4719 -73.0114 59° Northeast 481 554 21,400 -660 Descending Boston Center
01:37PM 42.5392 -72.8600 59° Northeast 469 540 21,000 -240 Descending Boston Center
01:38PM 42.6064 -72.7081 59° Northeast 469 540 20,900 -1,740 Descending Boston Center
01:39PM 42.6881 -72.5333 58° Northeast 463 533 17,200 -3,480 Descending Boston Center
01:40PM 42.7547 -72.3836 59° Northeast 463 533 13,900 -2,640 Descending Boston Center
01:41PM 42.8003 -72.2278 68° East 456 525 11,900 -2,040 Descending Boston Center
01:42PM 42.8106 -72.0919 84° East 412 474 10,000 -1,500 Descending Boston Center
01:43PM 42.8558 -71.9586 65° Northeast 336 387 9,000 -1,140 Descending Boston Center
01:44PM 42.9094 -71.8675 51° Northeast 341 392 7,700 -1,500 Descending Boston Center
01:45PM 42.9714 -71.7592 52° Northeast 331 381 6,000 -1,680 Descending Boston Center
01:46PM 43.0189 -71.6706 54° Northeast 319 367 4,500 -1,500 Descending Boston Center
01:47PM 43.0514 -71.5650 67° East 313 360 3,100 -960 Descending Boston Center
01:48PM 43.0406 -71.4914 101° East 237 273 2,600 -900 Descending Boston Center
01:49PM 42.9964 -71.4722 162° South 140 161 1,400 -960 Descending Boston Center
01:50PM 42.9650 -71.4528 156° South 140 161 700 -540 Descending Boston Center
01:51PM 42.9294 -71.4306 155° Southeast 140 161 400 9,960 Descending Boston Center
01:52PM 42.8917 -71.4114 160° South 140 161 21,000 10,380 Climbing Boston Center
01:53PM 42.8561 -71.3892 155° Southeast 140 161 21,000  Level Boston Center
01:54PM 42.8183 -71.3703 160° South 140 161 21,000  Level Boston Center
01:56PM 42.9167 -71.4333 316° Northwest  Level FlightAware Approximate
02:03PM 42.9328 -71.4358 316° Northwest  Level Estimated
02:04PM 42.9328 -71.4358 316° Northwest  Level Estimated
02:05PM 42.9328 -71.4358 316° Northwest  Level Estimated
02:06PM 42.9328 -71.4358 316° Northwest  Level Estimated
02:07PM 42.9328 -71.4358 316° Northwest  Level Estimated
02:08PM 42.9328 -71.4358 316° Northwest  Level Estimated